Torna al catalogo

SL-3 R/B

AttivoPO
NORAD 14453·ROCKET BODY·🇷🇺 Russia

Lanciato Oct 28, 1983 da Plesetsk Cosmodrome

Loading…

Prossimi Passaggi (prossime 24 ore)

TLE

AggiornatoSource: Space-Track

Epoca: Sep 14, 2026, 21:04 UTC

1 14453U 83109B   26257.87779368  .00000070  00000-0  23021-4 0  9994
2 14453  81.1658 307.9160 0103956  12.0301 348.3323 14.25476919228326

Traccia SL-3 R/B in tempo reale con AllMySat

Download on the App Store